Contrats : rapport du 3e trimestre 2005-2006

Date du contrat Nom du vendeur Devis descriptif Valeur du contrat Numéro de référence Durée du contrat / Date de livraison
2005/10/05 Event Design Group 0499 - Contrat de services - conception graphique pour la Soirée de remise de prix  16 157 $ 223-05-0010 2005/10/06 - 2005/12/31
2005/10/07 Burns Centre for Public Mangement 0491 - Consultation en gestion - élaboration du Plan de vérification interne des IRSC  37 450 $ 245-05-0002 2005/10/07 - 2006/01/15
2005/10/11 CP Images 0499 - Contrat de services - photographie au besoin  16 050 $ 223-05-0012 2005/10/12 - 2006/10/11
2005/10/14 Dynamic Personnel 0484- Services de travail temporaire  12 181 $ 241-05-0058 2005/11/14 - 2006/02/24
2005/10/14 Provence 0491 - Consultation en gestion - recherche d’un cadre  69 550 $ 110-05-0007 2005/10/17 - 2006/01/31
2005/10/19 Ottawa Security 0460 - Services de protection  91 202 $ 425-05-0006 2005/10/24 - 2008/10/23
2005/10/21 Chris Klus HR 0499 - Contrat de services - étude de cas pour la Direction de la planification et des politiques générales  24 952 $ 250-05-0007 2005/10/24 - 2005/11/30
2005/10/21 Leverus 0472 - Consultants en informatique - hébergement, entretien et projets Web  80 250 $ 280-05-0005 2005/10/24 - 2008/10/23
2005/10/25 ArTemp Personnel Services Inc. 0484 - Employé temporaire, Ressources humaines  34 980 $ 440-05-0106 2005/10/25 - 2006/01/31
2005/10/27 Faye Kert 0499 - Contrat de services - soutien administratif  21 400 $ 230-05-0035 2005/10/31 - 2006/01/13
2005/10/28 Kishk Anaquot 0491 - Consultation en gestion - évaluation de l’examen par les pairs  21 921 $ 330-05-0124 2005/11/05 - 2005/12/20
2005/11/03 Bowdens Media Monitoring 0351 - Services professionnels en communication - analyse des médias  58 850 $ 223-05-0006 2005/11/15 - 2008/11/14
2005/11/08 Human Resource Systems Group 0499 - Contrat de services - stratégie de développement des RH 2005  24 289 $ 441-05-0020 2005/11/09 - 2006/04/28
2005/11/08 Natalie Kishchuk 0499 - Contrat de services - stratégie d’évaluation en matière de Pratiques exemplaires en matière de protection de la vie privée  10 262 $ 270-05-0023 2005/11/09 - 2006/03/31
2005/11/09 Cygnos IT 0491 - Consultation de gestion - cadre de politiques de sécurité de la TI  24 999 $ 433-05-0012 2005/11/21 - 2006/03/31
2005/11/10 Lowe Martin 0321 - Services d’impression - rapport annuel  16 856 $ 250-05-0009 2005/11/10 - 2005/12/02
2005/11/10 Natalie Kishchuk 0491 - Consultation en gestion - rapport de rendement de 5 ans des IRSC  24 877 $ 241-05-0014 2005/11/14 - 2006/01/13
2005/11/14 It/Net 0499 - Contrat de services - vérification interne de la gestion des dossiers des IRSC  59 385 $ 245-05-0001 2005/11/21 - 2006/02/24
2005/11/16 Datatip Inc. 0491 - Consultation en gestion - conseil sur l’accès à l’information  24 999 $ 431-05-0003 2005/11/17 - 2006/03/31
2005/11/17 Digital Print 0499 - Contrat de services - énoncé de travail, services d’impression  23 112 $ 424-05-0014 2005/11/21 - 2006/01/06
2005/11/22 HKBP Inc. 0444 - Frais de scolarité - coaching de la direction  10 700 $ 430-05-0003 2005/11/28 - 2006/09/30
2005/11/22 Press News Limited 0351- Abonnement pour les services de presse  23 400 $ 223-05-0053 2006/01/01 - 2007/12/31
2005/11/23 Kelly Sears Consulting 0491 - Consultation en gestion - examen organisationnel de la Direction des finances et de l’administration  24 556 $ 427-05-0004 2005/12/05 - 2006/02/28
2005/11/28 Bartha Knoppers 0491 - Consultation en gestion - analyse de la documentation et des politiques sur les cellules souches  18 560 $ 110-05-0009 2005/11/28 - 2006/03/31
2005/11/28 Enabling Learning Corp. 0446 - Formation - formation sur les contrats  22 710 $ 424-05-0015 2005/11/28 - 2006/03/31
2005/11/30 Ray & Berndtson 0491 - Consultation en gestion - recherche d’un cadre pour le poste de VP d’application des connaissances  67 410 $ 110-05-0008 2005/12/05 - 2006/03/31
2005/12/05 Darin Rovere 0499 - Contrat de services - plan stratégique de 3 ans  24 824 $ 270-05-0025 2005/12/05 - 2006/02/28
2005/12/06 Cygnos IT 0491 - Consultation en gestion - évaluation de la vulnérabilité  23 112 $ 433-05-0014 2005/12/15 - 2006/03/31
2005/12/07 Karen Laughlin 0491 - Consultation en gestion - examen externe des IRSC  18 575 $ 241-05-0015 2005/12/12 - 2006/03/31
2005/12/13 Azur 0484- Services de travail temporaire  10 603 $ 320-05-0110 2005/12/19 - 2006/03/31
2005/12/13 Chris Klus HR 0491 - Consultation en gestion - structure organisationnelle de la Direction de l’évaluation et de l’analyse  24 952 $ 241-05-0016 2005/12/14 - 2006/03/31
2005/12/21 FreeBalance 1228/0491 - Licences de logiciels pour un module - l’approvisionnement intégré, formation et soutien  201 355 $ 433-05-0013 2005/12/21 - 2006/12/31